GFSSW_850_spd_291.txt.gz
Wind_Speed
11 11 10 9 9 8 8 7 7 7 7 7 5 3 2 3 4 5 3 5 8 11 10 5 4 2 1 5 5 6 3 8 14 13 13 14 12 11 15 17 12 5 27 26 25
13 12 11 10 9 8 8 7 6 7 7 6 4 3 3 4 6 6 6 9 13 10 10 6 4 3 5 5 2 5 8 13 13 15 12 13 16 19 14 14 17 25 25 26 24
13 13 12 11 10 9 8 7 6 6 6 5 4 4 4 7 6 6 4 11 11 11 6 2 5 4 5 7 11 6 12 13 7 16 15 16 16 14 16 14 17 23 26 25 22
14 14 13 12 10 9 8 6 6 6 5 4 3 4 6 6 1 8 8 11 11 7 6 4 7 6 5 5 12 4 10 15 14 14 13 15 15 13 6 16 18 23 23 23 20
15 14 13 12 10 9 8 6 6 6 4 3 3 6 7 7 8 11 11 12 10 5 7 6 12 7 3 5 12 6 13 16 15 13 16 12 13 10 11 17 22 22 21 19 18
16 14 13 12 11 9 7 6 6 6 3 3 5 8 7 5 7 12 10 9 6 5 3 4 2 5 9 3 5 5 14 18 12 15 11 15 12 10 14 20 22 20 19 17 15
17 15 13 11 11 8 8 7 6 5 3 5 7 9 6 6 9 15 14 9 7 7 1 1 4 9 9 9 6 19 15 15 13 12 10 14 14 11 19 21 21 18 17 15 15
17 16 14 11 9 8 6 5 4 4 4 6 9 8 1 5 9 16 14 10 8 6 4 3 5 7 8 10 13 8 9 10 15 11 9 10 11 15 19 21 19 17 16 15 15
17 17 15 11 8 7 4 3 1 3 5 8 8 7 8 7 12 15 14 10 8 6 5 5 3 4 7 13 12 9 5 12 13 13 10 13 15 17 20 20 19 17 15 15 16
17 16 15 11 7 5 3 3 4 5 6 9 5 7 8 13 12 14 14 8 8 8 8 9 10 9 8 2 3 5 12 8 15 14 14 11 17 16 21 20 19 19 17 17 16
17 16 15 11 6 2 2 2 2 4 12 9 15 5 10 10 11 14 15 11 9 9 14 15 13 12 15 4 14 2 13 4 20 13 15 12 16 18 21 20 19 20 17 17 17
18 16 13 10 4 1 3 5 5 5 10 12 6 8 6 8 12 14 16 15 13 13 10 7 13 11 1 4 4 6 7 5 6 14 11 18 18 17 17 18 19 18 20 20 19
18 17 12 8 3 3 2 0 4 5 9 18 14 16 14 12 15 18 18 21 12 15 11 16 5 7 4 7 9 11 11 6 5 10 19 15 10 18 17 17 17 18 17 19 20
19 16 11 5 3 5 4 2 6 5 6 16 15 16 10 12 16 14 19 18 14 15 13 14 6 8 9 11 9 17 7 7 15 15 1 10 1 7 17 16 17 17 20 18 21
20 16 10 4 5 7 2 3 4 5 5 8 17 7 13 16 7 14 15 19 17 15 8 14 15 9 12 9 9 7 4 9 11 12 9 7 11 11 22 17 18 20 18 20 20
19 15 7 3 7 6 6 4 3 7 4 7 7 12 16 18 12 13 14 15 15 17 13 16 4 5 13 2 8 3 6 5 9 12 13 11 11 10 11 15 18 19 20 17 19
17 11 4 4 2 5 5 7 7 9 5 5 7 12 16 16 16 11 16 18 15 13 15 17 13 10 8 12 6 11 14 9 11 10 10 4 6 12 13 6 3 6 22 23 18
12 7 2 5 5 6 7 10 10 2 3 4 5 8 15 17 17 15 14 14 19 18 14 15 15 16 14 18 13 16 18 13 12 12 7 10 8 10 11 7 4 8 11 23 25
7 5 1 4 5 8 12 10 9 12 3 4 8 11 14 17 13 17 15 16 18 19 16 11 19 15 13 15 10 15 17 17 15 16 10 8 10 10 12 8 5 8 13 17 24
3 4 2 2 5 9 9 14 4 4 4 8 12 5 12 15 15 16 16 14 17 16 18 17 11 13 9 6 9 16 8 14 10 16 17 14 10 10 14 13 11 7 21 21 26
1 7 0 2 5 11 9 13 10 8 5 7 11 11 10 17 14 17 14 15 13 9 10 17 12 11 12 14 16 13 15 15 16 13 9 10 3 11 13 14 14 13 15 18 23
5 3 3 6 11 10 11 9 5 5 9 10 5 11 13 11 15 13 19 16 19 13 12 17 12 14 14 5 8 10 10 17 14 16 12 11 2 8 11 21 22 18 16 16 20
8 3 4 6 6 7 2 8 5 11 10 10 10 11 12 10 10 17 19 10 9 8 9 13 11 15 9 11 8 13 15 13 17 14 15 8 6 9 19 15 14 18 15 14 16
6 4 7 9 7 9 2 7 5 6 10 13 13 13 15 14 13 12 16 7 6 10 3 6 14 15 7 15 10 18 13 7 13 10 11 13 14 11 18 14 15 15 17 17 17
4 3 5 2 5 4 3 5 8 7 6 9 10 14 16 16 17 16 15 6 6 3 6 11 16 12 7 5 12 4 11 6 9 10 14 17 12 18 19 16 19 20 18 18 15
8 6 3 12 5 7 6 4 6 8 9 12 14 14 16 16 17 14 17 7 11 10 13 16 12 4 3 3 4 6 3 7 9 9 11 13 13 16 19 21 20 19 19 17 14
8 6 7 2 9 9 4 5 7 8 8 7 11 11 12 13 17 12 10 8 4 5 13 12 10 8 11 2 5 10 9 9 6 8 8 11 13 17 14 20 20 17 15 14 13

GFSSW_850_spd_297.txt.gz
Wind_Speed
12 12 11 11 10 10 9 10 9 7 6 6 6 7 6 6 6 8 8 7 7 4 5 3 1 5 12 10 5 5 1 1 8 9 18 26 20 24 30 41 28 14 33 35 32
14 13 12 11 10 10 10 9 9 7 5 7 7 6 7 7 8 13 6 6 10 8 7 4 8 5 12 5 13 2 2 7 10 10 18 26 22 23 18 25 31 35 32 34 30
15 14 13 12 11 10 10 9 8 7 5 7 7 7 6 6 8 12 13 11 8 7 6 6 12 19 16 9 15 5 5 6 14 18 23 22 21 25 28 20 33 39 37 32 32
16 15 14 14 12 11 10 9 8 7 5 6 7 6 6 5 3 7 5 8 11 10 8 10 15 16 5 2 2 3 14 17 17 24 22 14 20 19 29 31 36 36 35 32 28
16 16 15 14 13 12 10 9 7 7 5 6 7 6 5 5 12 7 7 10 10 10 9 21 23 7 4 7 8 3 8 18 22 20 17 16 10 21 33 36 35 32 31 31 30
17 17 16 15 13 12 11 10 7 6 5 6 7 6 5 6 5 9 7 9 14 10 6 12 7 10 5 9 8 24 14 21 20 12 20 15 16 25 30 34 31 29 30 30 29
17 17 16 15 13 11 11 9 6 5 5 5 6 5 8 14 9 9 7 10 5 6 11 14 3 6 6 7 25 15 6 12 14 14 13 16 13 13 27 29 27 24 24 31 25
17 17 16 15 12 10 9 7 4 3 4 5 5 5 7 3 8 13 11 8 4 6 4 4 11 15 11 8 14 9 4 3 9 16 4 9 11 18 27 26 24 23 21 24 32
17 16 16 14 11 8 7 3 2 1 2 4 3 3 9 12 13 10 11 13 11 8 4 4 5 11 8 15 9 6 4 5 8 16 10 6 13 22 27 24 22 22 18 27 22
17 16 15 13 9 7 4 3 2 4 2 4 5 5 15 14 17 17 13 15 15 13 13 13 7 6 5 7 6 13 7 4 5 3 12 9 13 16 26 26 24 22 20 22 21
18 16 14 11 7 5 1 5 3 2 9 12 11 8 2 11 13 18 14 15 14 18 8 15 7 10 17 22 20 18 11 7 2 6 6 10 9 13 22 23 24 28 25 29 26
20 17 13 9 5 4 3 5 9 9 9 18 22 22 23 12 13 15 17 18 11 8 11 4 11 12 23 23 19 19 10 4 12 7 6 12 3 10 12 22 27 27 28 31 27
20 18 13 7 4 3 5 6 5 11 5 15 24 18 16 10 14 16 18 19 13 10 14 8 9 26 21 22 22 19 23 12 14 16 5 11 3 10 5 1 23 28 31 32 32
21 18 12 4 2 3 8 5 7 9 2 7 13 17 15 11 14 19 22 19 9 14 15 9 10 0 6 5 14 9 26 19 23 12 7 4 4 5 8 6 9 27 29 32 34
20 17 10 3 3 4 7 2 10 7 3 9 12 7 14 18 8 14 16 23 11 12 8 10 11 9 8 8 5 6 9 22 26 12 8 4 5 7 6 10 7 19 31 36 42
19 15 8 4 5 3 9 7 10 2 5 7 10 8 8 17 14 18 15 12 12 10 13 11 22 4 3 9 7 10 4 9 8 6 3 13 6 5 7 13 8 8 22 32 40
17 12 7 6 5 3 2 7 1 3 2 6 8 8 9 8 9 9 8 3 2 4 6 9 13 13 5 2 8 9 4 4 4 2 8 14 3 7 16 11 16 9 9 10 28
15 8 4 5 8 4 3 2 3 8 8 4 4 9 8 10 10 10 6 7 8 6 6 5 8 14 10 9 8 7 6 5 4 3 7 19 8 5 16 18 8 12 19 17 13
13 5 4 3 1 3 7 3 5 5 7 7 6 3 6 6 9 9 10 9 9 11 9 5 11 15 14 7 10 7 6 10 6 5 3 3 6 8 5 11 14 13 17 13 10
16 6 6 4 3 6 2 5 6 14 8 10 6 7 8 9 7 7 7 9 9 10 9 8 6 10 10 8 7 8 6 4 4 3 4 4 6 9 14 11 11 11 16 20 26
10 6 7 3 7 5 3 6 9 9 10 6 6 8 10 9 12 9 5 8 10 6 10 7 5 12 5 4 6 3 4 4 1 3 1 2 3 14 19 20 20 22 21 23 29
6 3 8 7 6 7 5 6 7 5 9 2 2 7 7 9 9 9 10 7 25 11 7 9 5 3 5 8 5 8 7 4 5 9 4 5 2 16 17 21 27 23 23 23 26
15 6 6 8 3 4 10 17 2 8 6 5 4 2 6 7 7 7 12 21 23 6 4 1 1 3 10 10 6 5 9 8 3 1 5 3 5 12 25 12 19 23 21 21 19
7 4 5 9 13 9 9 6 5 6 4 5 6 9 8 8 9 7 10 10 25 4 8 9 1 6 6 4 5 4 5 6 2 1 3 2 9 13 18 16 20 18 19 20 18
3 4 15 4 7 7 8 9 9 7 5 6 4 6 7 5 6 8 9 11 18 9 2 3 1 4 7 9 8 7 7 5 9 6 4 10 9 13 14 16 22 20 17 15 13
8 8 13 18 19 7 5 6 10 4 8 8 6 9 8 6 7 7 8 7 3 9 2 4 5 3 9 10 10 11 24 6 6 6 14 21 15 19 26 29 23 20 20 21 19
11 15 10 12 9 7 6 3 6 8 7 15 12 7 10 11 18 17 19 6 5 4 6 7 3 1 3 3 7 9 12 14 6 13 12 8 10 21 15 21 24 24 22 23 22

GFSSW_850_spd_303.txt.gz
Wind_Speed
14 14 14 13 12 11 9 7 7 8 5 4 4 3 1 2 4 4 3 7 6 11 10 8 3 2 4 3 6 3 0 3 6 7 6 20 9 8 4 20 5 2 20 29 27
15 15 15 14 13 11 10 8 7 7 5 3 3 2 1 1 3 4 5 9 14 14 12 9 4 5 1 3 4 2 2 3 6 6 13 16 22 12 9 11 14 27 27 29 28
15 15 15 14 13 11 10 8 7 6 5 3 3 2 0 1 2 6 10 14 14 11 10 16 17 7 3 4 6 2 3 6 9 23 28 22 17 11 23 7 29 34 32 32 29
15 15 15 14 13 11 9 7 7 6 4 3 2 1 2 2 4 6 14 12 11 12 17 19 8 2 2 2 6 4 8 8 14 23 22 21 19 13 6 11 29 34 36 35 30
15 15 15 14 13 11 9 7 7 5 3 2 1 0 2 2 2 5 17 16 16 12 13 18 19 5 0 6 10 2 9 20 20 20 23 22 14 15 8 25 29 33 33 34 30
16 16 16 14 13 10 8 7 6 4 2 1 0 1 1 1 1 7 13 20 16 15 20 19 13 9 4 1 2 7 10 12 16 23 25 17 14 8 19 27 32 34 32 31 30
16 16 16 15 13 9 8 7 5 3 2 1 1 1 3 2 4 12 15 17 17 12 11 13 2 6 6 1 3 5 16 12 6 11 9 25 3 6 28 30 32 33 33 30 29
16 16 16 15 12 8 8 5 2 0 1 2 2 3 3 5 8 13 16 19 13 8 8 3 5 5 3 2 4 6 6 3 2 9 14 3 4 11 26 29 28 27 29 30 30
17 17 16 14 11 7 5 3 2 2 3 3 3 2 1 3 15 15 19 16 12 8 1 8 7 3 6 3 4 7 4 4 6 9 3 3 4 17 27 26 25 27 28 27 29
17 17 16 14 9 4 3 4 3 3 3 3 2 1 6 4 15 19 17 10 9 6 9 6 3 4 3 2 6 4 5 2 3 6 8 3 3 15 26 26 27 28 32 32 28
18 16 15 12 6 2 2 2 2 1 4 6 1 3 7 3 12 18 16 15 5 6 5 10 3 6 11 7 1 12 12 10 5 5 1 6 2 17 25 22 21 25 27 31 31
18 16 14 10 3 3 3 4 8 3 7 10 12 16 15 12 1 15 18 12 7 6 2 1 8 14 10 7 5 6 8 1 3 2 3 2 10 14 20 26 28 24 27 33 37
19 16 12 8 3 5 4 10 9 6 2 6 9 11 10 7 9 14 21 17 5 6 8 7 11 6 10 6 6 4 7 9 4 5 2 0 6 6 8 18 21 25 32 31 36
19 16 11 5 4 6 3 6 7 4 4 5 4 4 9 5 4 19 22 15 5 9 7 5 11 10 9 4 6 6 12 12 11 8 4 5 4 7 12 8 13 25 28 36 37
19 16 10 2 3 4 2 0 3 2 3 1 5 1 9 10 3 14 21 21 7 6 5 8 5 5 4 6 13 10 9 5 7 4 3 2 1 6 7 16 19 22 29 37 43
18 14 9 4 6 4 3 1 2 6 0 1 6 5 5 3 3 5 12 11 10 3 2 7 5 4 7 4 19 8 11 9 4 3 3 8 6 6 6 26 21 19 31 36 43
14 11 7 4 7 4 4 2 5 3 3 2 5 2 3 5 2 6 5 3 6 2 6 5 4 4 6 2 6 9 8 3 2 1 6 2 7 12 5 6 25 22 26 33 38
12 5 2 4 8 4 4 5 2 3 6 4 1 3 4 1 2 1 5 5 4 2 3 4 9 6 5 6 8 13 9 6 7 5 3 5 6 5 10 5 13 16 20 27 34
7 4 7 4 10 3 5 3 6 5 3 5 2 5 3 4 0 2 3 3 5 8 9 6 7 3 4 4 8 4 6 6 7 2 3 4 5 3 13 13 19 19 17 14 20
6 6 5 5 4 4 5 4 4 6 4 1 3 3 3 3 3 3 1 4 3 4 9 3 4 5 3 3 1 7 5 2 3 4 4 5 4 4 3 8 11 15 17 17 15
5 4 4 3 4 3 3 6 6 10 4 3 3 3 3 3 3 1 1 3 5 7 4 4 7 10 3 3 7 0 2 5 5 5 6 3 5 4 7 10 11 15 19 18 17
4 3 5 7 3 3 2 5 4 8 16 3 4 3 4 2 2 1 1 3 10 3 2 2 4 7 14 4 5 2 2 6 5 4 1 3 4 6 8 14 21 19 22 21 16
4 5 2 7 2 3 6 5 4 3 3 2 2 1 0 2 2 2 0 4 7 4 3 4 0 2 7 6 5 5 3 4 4 3 6 6 4 7 12 14 19 25 25 23 22
5 4 6 3 7 2 5 5 7 7 4 5 4 5 4 4 4 2 3 4 12 5 3 4 3 5 6 4 2 3 6 3 4 4 5 5 8 12 13 10 10 13 18 15 19
8 3 5 3 5 6 2 5 5 5 4 11 5 4 2 3 4 4 1 5 6 7 2 4 3 3 4 9 8 6 6 7 3 1 4 6 7 14 14 12 13 11 17 20 19
5 6 6 4 10 6 6 5 3 3 2 2 2 1 4 4 5 4 4 4 6 3 2 2 3 4 6 5 12 7 11 6 4 5 5 7 4 8 8 11 12 14 19 18 16
9 5 4 4 6 3 3 5 7 12 2 3 2 1 3 3 6 7 10 1 3 3 0 3 4 3 5 2 3 7 8 8 2 4 5 4 5 9 7 12 16 19 18 17 18

GFSSW_850_spd_306.txt.gz
Wind_Speed
15 14 14 13 11 10 8 8 6 4 3 2 0 0 3 4 5 6 7 8 8 12 11 13 9 6 4 2 3 1 3 2 4 9 6 17 7 4 6 14 3 2 24 27 25
15 15 14 13 12 10 8 8 6 4 2 1 1 2 3 4 5 7 11 9 10 10 11 10 9 7 4 3 2 2 2 6 6 8 11 13 14 11 8 6 12 22 27 26 23
15 15 14 13 12 10 8 8 5 3 2 1 1 1 4 4 4 6 15 14 11 9 9 11 7 4 3 2 3 2 3 3 7 12 22 16 11 8 18 3 14 35 32 27 24
15 15 14 14 12 10 8 7 5 3 2 1 2 2 3 5 3 11 16 14 12 12 11 14 12 7 1 0 3 2 7 5 14 20 16 13 15 11 4 3 26 31 32 30 27
15 15 14 14 12 10 8 7 5 2 1 2 2 2 3 3 3 12 17 12 14 15 18 13 11 4 2 2 3 1 5 7 16 19 21 17 12 8 4 17 25 26 29 29 27
16 15 15 14 12 9 7 7 5 2 2 3 3 3 3 2 3 9 19 16 15 19 17 13 5 8 2 1 2 3 2 10 16 18 14 11 8 6 11 24 27 29 28 27 27
16 16 15 13 12 9 7 7 3 1 3 4 4 3 2 3 5 12 19 17 12 10 13 7 5 1 2 4 7 7 11 10 10 5 5 20 2 3 22 26 31 29 27 26 26
16 16 15 13 11 7 6 4 1 1 4 4 4 5 3 3 10 13 18 19 15 9 6 3 5 5 4 2 7 6 6 3 0 6 8 2 3 4 23 28 26 27 28 27 27
17 16 15 12 9 5 4 3 3 3 3 5 5 3 2 4 13 15 16 19 15 4 5 6 1 3 2 3 4 7 3 3 3 3 7 3 3 11 24 23 22 25 29 28 28
17 16 14 12 6 3 3 4 5 4 4 3 3 3 4 3 15 16 16 6 7 4 5 4 2 3 3 4 1 3 5 3 7 5 5 5 3 9 24 23 23 25 29 29 30
18 16 14 10 3 1 2 3 2 1 3 2 3 3 6 6 12 17 17 13 5 4 2 4 4 3 5 4 2 5 5 4 2 3 3 3 5 11 20 20 18 24 26 28 32
19 16 13 8 1 4 6 4 6 3 5 3 8 8 6 7 7 11 19 10 6 5 6 4 5 11 8 7 3 5 2 4 2 3 4 3 4 7 17 25 27 28 31 34 34
19 15 12 6 3 6 7 6 7 4 1 3 5 7 6 12 8 16 21 14 6 4 6 6 8 3 6 8 7 5 8 6 1 3 3 5 6 5 12 21 24 25 29 31 36
19 15 9 4 6 6 4 5 5 2 5 5 3 3 9 6 3 12 20 12 2 7 6 5 7 6 7 5 7 6 5 5 6 4 0 4 4 5 7 16 18 27 26 33 35
19 13 7 2 3 7 2 3 4 2 3 2 4 3 10 8 6 7 22 15 6 5 5 6 2 1 4 6 10 4 11 7 8 5 2 1 2 7 3 13 19 26 29 33 34
17 11 5 3 7 8 5 1 1 6 1 2 5 4 5 3 2 6 9 12 6 3 1 6 6 3 4 3 12 11 12 9 5 3 3 6 7 6 5 8 7 23 32 36 37
15 9 2 4 9 8 5 2 5 4 4 1 3 3 2 3 2 3 6 4 6 3 3 3 5 4 4 7 4 5 5 3 3 1 6 2 3 9 6 10 10 15 29 37 40
10 3 3 6 9 7 6 5 2 2 5 3 3 3 5 2 1 2 3 4 2 4 3 3 7 5 5 9 10 8 7 5 7 5 4 4 6 6 1 9 10 10 28 26 31
5 9 9 6 8 6 6 4 6 6 3 4 3 4 1 1 3 2 4 3 4 7 8 3 6 5 5 3 10 6 4 3 6 3 2 4 7 3 2 8 14 17 12 13 17
8 11 11 9 6 3 5 4 4 4 4 1 2 1 3 1 2 3 3 2 2 4 3 7 5 4 5 3 1 7 6 2 2 5 5 5 4 5 2 2 4 8 11 15 15
4 5 5 5 4 1 4 6 5 7 3 1 2 3 2 1 2 1 1 1 1 1 6 5 3 8 2 5 8 2 2 2 5 4 5 3 6 2 3 4 5 6 10 12 14
5 4 3 3 4 2 1 3 5 4 4 1 3 3 3 2 1 1 2 3 4 1 1 2 5 5 11 0 1 4 3 4 5 4 1 3 6 2 6 8 8 6 11 10 8
4 4 5 3 3 4 6 4 3 4 4 3 3 3 1 3 1 1 2 3 5 1 1 5 1 3 10 6 1 4 2 3 4 3 6 5 6 4 9 10 8 11 10 11 15
3 3 5 6 6 2 4 5 6 5 2 6 3 5 3 3 4 2 2 3 9 2 1 6 4 6 7 6 2 2 4 2 3 4 4 6 4 9 10 9 8 7 9 11 10
6 2 3 2 4 4 1 4 5 5 4 4 4 3 3 2 0 1 3 4 4 1 3 5 4 3 2 2 3 2 3 3 2 2 4 3 7 8 10 9 9 9 9 11 13
5 4 3 2 4 4 3 4 4 7 3 2 4 3 1 5 6 4 4 3 5 5 2 3 1 2 3 4 6 4 6 2 3 2 2 3 2 3 13 14 10 8 12 15 16
9 6 3 4 4 2 2 4 4 6 2 3 2 3 3 2 5 8 6 3 3 2 2 3 5 3 4 4 4 3 3 1 2 2 5 4 5 9 7 11 13 12 16 16 14

GFSSW_850_spd_309.txt.gz
Wind_Speed
13 13 12 10 9 8 7 5 3 1 2 2 2 3 5 7 8 8 8 6 9 13 11 11 11 8 5 3 5 3 2 4 4 8 8 15 7 4 5 16 6 5 15 20 24
13 13 12 11 9 9 7 4 2 1 2 3 3 4 5 7 8 10 10 10 9 12 15 9 9 8 3 3 3 3 1 2 3 5 9 14 12 10 10 10 8 14 19 26 24
13 13 12 11 10 9 7 4 2 1 2 4 4 4 5 6 6 8 13 10 9 10 9 10 10 3 3 3 2 1 1 3 4 8 18 15 12 6 14 6 10 28 30 25 23
13 12 12 11 10 9 7 4 2 1 3 4 5 5 5 6 3 11 14 12 11 10 11 12 6 2 2 2 2 1 4 3 9 13 15 13 12 14 2 1 15 25 25 25 21
13 12 12 11 10 9 6 4 2 1 3 5 5 6 6 3 3 13 15 14 11 11 11 6 3 2 2 1 1 1 3 6 11 13 14 13 10 11 5 14 23 24 22 22 20
13 12 12 11 10 8 6 4 2 2 4 6 7 6 5 4 7 15 16 15 12 12 10 2 4 2 3 2 2 2 11 16 11 12 10 9 7 3 8 19 22 24 21 19 19
13 13 12 11 9 7 5 4 0 3 5 7 7 7 5 2 7 18 20 13 10 10 8 8 8 2 2 0 3 6 17 11 9 7 4 12 5 0 14 19 21 21 20 19 19
14 14 12 11 8 6 4 2 3 4 6 6 7 7 5 4 11 19 19 12 8 5 7 6 4 1 1 1 2 6 5 4 6 9 9 3 2 6 17 21 21 20 19 20 20
15 14 12 10 6 4 4 4 5 6 6 6 7 6 5 9 16 17 16 13 13 7 3 6 2 1 2 2 4 3 5 6 8 7 6 9 2 9 18 20 20 21 20 19 18
15 14 12 8 3 3 4 6 7 6 7 6 4 5 6 7 18 18 15 13 5 3 3 3 0 2 3 2 2 2 4 3 6 4 10 10 7 11 20 20 21 21 20 19 20
16 13 10 6 1 2 4 5 2 3 3 2 4 5 10 13 16 18 18 12 5 5 2 2 1 3 7 4 1 4 5 4 4 2 5 8 8 11 20 20 19 21 21 22 24
16 12 8 4 2 4 6 4 6 1 1 4 5 7 11 14 8 16 17 8 7 4 3 3 2 3 3 3 6 5 5 5 4 3 3 2 9 11 21 27 27 25 25 26 25
16 11 6 2 6 8 7 5 5 3 1 2 4 7 10 9 6 17 21 8 5 4 5 4 1 10 5 7 9 12 10 7 2 3 4 6 8 11 15 21 24 24 23 25 26
16 9 3 1 9 9 4 4 5 2 2 3 4 6 10 9 5 16 22 10 5 8 6 5 4 5 7 8 10 8 6 9 5 3 4 5 5 3 10 17 23 27 27 29 28
15 8 1 7 6 9 4 3 3 3 4 4 4 6 11 7 11 11 21 13 8 6 5 2 3 1 5 3 11 1 2 5 5 3 3 1 3 3 3 10 18 25 29 29 29
14 5 3 7 10 11 5 2 1 1 1 3 4 6 7 2 3 7 11 6 5 5 5 7 3 4 1 5 9 13 13 9 5 1 4 4 5 8 3 1 1 16 27 31 28
9 2 4 8 12 12 7 3 0 1 2 2 2 3 5 5 3 4 9 9 7 4 8 4 8 2 4 9 10 2 7 0 1 2 4 3 6 10 4 5 5 13 17 27 29
8 7 8 10 11 10 9 2 2 0 2 1 2 4 5 4 2 2 6 11 3 2 2 4 6 4 5 12 10 15 5 6 8 6 4 3 6 4 2 5 7 8 11 18 24
13 13 10 11 6 7 3 1 3 4 1 2 2 3 2 2 2 3 4 4 6 10 9 5 6 2 4 4 6 7 8 3 3 2 4 4 6 8 4 2 7 11 11 11 9
14 16 14 8 4 4 2 2 2 4 2 2 2 2 4 4 5 3 3 1 4 5 5 5 9 9 3 4 3 5 6 4 3 6 9 7 4 9 7 4 4 6 7 10 7
4 5 6 6 3 2 1 2 4 6 5 2 3 3 2 4 3 3 4 1 1 3 3 4 4 13 2 7 13 5 4 2 2 3 11 14 6 2 3 3 4 3 4 6 7
4 3 3 5 2 2 1 1 4 3 0 2 2 2 2 2 3 2 3 2 1 1 1 2 2 7 14 1 2 2 10 10 8 6 4 5 5 1 2 6 8 7 7 8 9
4 3 6 4 2 2 3 2 3 3 3 1 2 3 3 3 2 1 1 1 3 1 3 5 3 5 7 4 3 5 4 4 3 2 7 8 6 3 5 6 7 8 9 9 12
3 1 5 7 6 2 3 3 3 4 1 3 3 2 3 2 3 2 0 2 5 1 2 6 3 7 11 5 2 3 4 4 6 5 5 7 5 7 7 6 8 8 9 10 11
6 3 2 2 4 3 2 4 3 3 5 4 3 3 3 2 1 1 2 3 3 3 3 3 8 5 5 4 4 2 3 6 8 3 6 3 4 3 9 9 11 10 9 8 9
4 3 3 2 2 2 3 3 3 3 2 2 3 3 2 3 4 4 4 4 5 1 1 1 3 4 5 1 2 2 2 3 2 3 5 3 5 1 10 15 13 11 9 7 7
9 6 2 2 3 1 2 3 1 5 3 2 0 2 4 1 2 5 5 3 3 3 1 3 5 5 7 0 3 4 2 2 1 2 3 2 4 10 10 12 13 12 11 11 10